Lamoni, IA

1:20 PM CDT on May 25, 2017 (GMT -0500)
Lamoni Municipal

Weather History for KLWD - March, 2014

Change the Weather History Date:

Sunday, March 2, 2014

  Actual Average Record
Temperature  
Mean Temperature -2 °F 34 °F  
Max Temperature 2 °F 44 °F 77 °F (1992)
Min Temperature -6 °F 24 °F -6 °F (2014)
Degree Days  
Heating Degree Days 67 31  
Month to date heating degree days 121 63  
Since 1 July heating degree days 5395 4780  
Cooling Degree Days 0 0  
Month to date cooling degree days 0 0  
Year to date cooling degree days 0 0  
Moisture  
Dew Point -13 °F    
Average Humidity 60    
Maximum Humidity 79    
Minimum Humidity 41    
Precipitation  
Precipitation 0.04 in 0.06 in 1.17 in (1965)
Month to date precipitation 0.25 0.12  
Sea Level Pressure  
Sea Level Pressure 30.54 in    
Wind  
Wind Speed 14 mph (North)    
Max Wind Speed 22 mph    
Max Gust Speed 29 mph    
Visibility 8 miles    
Events Snow    
T = Trace of Precipitation, MM = Missing Value Source: NWS Daily Summary

Daily Weather History Graph

Daily Weather History Graph

Search for Another Location

Airport or City:

Trip Planner

Search our weather history database for the weather conditions in past years. The results will help you decide how hot, cold, wet, or windy it might be!

Date:

Astronomy

Mar. 02, 2014 Rise Set
Actual Time 6:47 AM CST 6:08 PM CST
Civil Twilight 6:20 AM CST 6:35 PM CST
Nautical Twilight 5:48 AM CST 7:07 PM CST
Astronomical Twilight 5:17 AM CST 7:38 PM CST
Moon 7:18 AM CST (3/2) 8:05 PM CST (3/2)
Length of Visible Light 12h 15m
Length of Day
11h 20m
Waxing Crescent, 3% of the Moon is Illuminated
Mar 2
Waxing Crescent
Mar 8
First Quarter
Mar 16
Full
Mar 23
Last Quarter
Mar 30
New

Hourly Weather History & Observations

Time (CST) Temp. Windchill Dew Point Humidity Pressure Visibility Wind Dir Wind Speed Gust Speed Precip Events Conditions
12:15 AM -0.9 °F -21.9 °F -6.0 °F 79% 30.41 in 1.0 mi North 17.3 mph 23.0 mph 0.02 in Snow Light Snow
12:38 AM -0.9 °F -21.2 °F -6.0 °F 79% 30.41 in 0.8 mi North 16.1 mph 24.2 mph 0.02 in Snow Light Snow
12:48 AM -0.4 °F -17.6 °F -5.8 °F 78% 30.42 in 1.2 mi North 11.5 mph - 0.04 in Snow Light Snow
12:53 AM -0.9 °F -19.9 °F -6.0 °F 79% 30.50 in 1.5 mi North 13.8 mph - 0.04 in Snow Light Snow
1:08 AM -0.9 °F -21.9 °F -7.1 °F 75% 30.41 in 2.5 mi North 17.3 mph 25.3 mph 0.00 in Snow Light Snow
1:11 AM -0.9 °F -21.2 °F -7.1 °F 75% 30.42 in 3.0 mi North 16.1 mph 25.3 mph 0.00 in Snow Light Snow
1:53 AM -0.0 °F -16.3 °F -6.0 °F 76% 30.52 in 5.0 mi North 10.4 mph - 0.00 in Snow Light Snow
2:53 AM -0.9 °F -21.2 °F -8.0 °F 72% 30.51 in 8.0 mi North 16.1 mph - 0.00 in Snow Light Snow
3:53 AM -0.9 °F -21.9 °F -9.9 °F 66% 30.52 in 10.0 mi North 17.3 mph - 0.00 in   Overcast
4:53 AM -2.0 °F -21.9 °F -14.1 °F 57% 30.53 in 10.0 mi North 15.0 mph - N/A   Overcast
5:53 AM -2.0 °F -23.9 °F -13.0 °F 60% 30.55 in 10.0 mi North 18.4 mph - N/A   Overcast
6:53 AM -2.9 °F -23.1 °F -14.1 °F 59% 30.58 in 10.0 mi North 15.0 mph 21.9 mph N/A   Overcast
7:53 AM -4.0 °F -26.4 °F -16.1 °F 56% 30.58 in 10.0 mi North 18.4 mph 27.6 mph N/A   Overcast
8:53 AM -4.0 °F -24.5 °F -17.0 °F 54% 30.61 in 10.0 mi North 15.0 mph - N/A   Overcast
9:53 AM -2.9 °F -23.8 °F -18.9 °F 46% 30.61 in 10.0 mi North 16.1 mph - N/A   Overcast
10:53 AM -2.9 °F -25.0 °F -18.0 °F 49% 30.61 in 10.0 mi North 18.4 mph - N/A   Overcast
11:53 AM -0.9 °F -18.3 °F -18.0 °F 44% 30.61 in 10.0 mi North 11.5 mph 20.7 mph N/A   Overcast
12:53 PM -0.0 °F -20.1 °F -17.0 °F 45% 30.56 in 10.0 mi NNE 16.1 mph - N/A   Clear
1:53 PM -0.0 °F -20.7 °F -17.0 °F 45% 30.58 in 10.0 mi North 17.3 mph 25.3 mph N/A   Clear
2:53 PM 1.0 °F -16.6 °F -16.1 °F 45% 30.58 in 10.0 mi North 12.7 mph - N/A   Clear
3:53 PM 1.0 °F -15.8 °F -15.0 °F 47% 30.56 in 10.0 mi North 11.5 mph - N/A   Clear
4:53 PM -0.0 °F -19.4 °F -17.0 °F 45% 30.54 in 10.0 mi North 15.0 mph - N/A   Clear
5:53 PM -0.0 °F -15.3 °F -17.0 °F 45% 30.56 in 10.0 mi North 9.2 mph - N/A   Clear
6:53 PM -2.0 °F -20.5 °F -15.0 °F 54% 30.56 in 10.0 mi North 12.7 mph - N/A   Clear
7:53 PM -2.9 °F -21.6 °F -14.1 °F 59% 30.58 in 10.0 mi North 12.7 mph - N/A   Clear
8:53 PM -4.0 °F -20.2 °F -14.1 °F 62% 30.60 in 10.0 mi North 9.2 mph - N/A   Clear
9:53 PM -5.1 °F -25.1 °F -15.0 °F 62% 30.61 in 10.0 mi North 13.8 mph - N/A   Clear
10:53 PM -5.1 °F -20.4 °F -15.0 °F 62% 30.61 in 10.0 mi North 8.1 mph - N/A   Clear
11:53 PM -5.1 °F -23.5 °F -15.0 °F 62% 30.61 in 10.0 mi NNW 11.5 mph - N/A   Clear